Find STARLINK-37934

NORAD ID: 799500997 Int'l Des: 2026-135X Constellation: starlink operational

Current View

Loading 3D Globe...

About STARLINK-37934

STARLINK-37934 (NORAD 799500997) is a starlink constellation satellite launched Jun 8, 2026

About STARLINK-37934

Description loading...

Upcoming Passes

Passes for default location (London). Set your location on the main map for personalized predictions.

Altitude History

Loading altitude history...

Two-Line Element Set

1 99999C 2026135X 26166.91368056 .00537130 00000-0 833930-4 0 1668
2 99999 97.2800 193.7033 0010658 263.7066 310.2907 16.03753698 10
Epoch: Jun 15, 2026 • Age: 7 hours